EDDCEDDE

Guest
Details From EDDC - Dresden
To EDDE - Erfurt
Flight Number -
Tags generated
Created
Modified
Stats Distance 106 nm / 197 km
Max Altitude 5,400 ft / 1,646 m
Waypoints 3
Social Downloads 0
Likes 0
Share VATSIM

Download

Looking for another format? Having issues loading an existing format? Contact us
Advertisement - Login to hide

Notes

Basic altitude profile: - Ascent Rate: 2500ft/min - Ascent Speed: 230kts - Cruise Altitude: 15000ft - Cruise Speed: 250kts - Descent Rate: 1500ft/min - Descent Speed: 220kts Options: - Use NATs: yes - Use PACOTS: no - Use low airways: no - Use high airways: yes

Route

EDDC RIVSA EDDE

ID Type Via Altitude Latitude Longitude Leg Dist Tot Dist Heading (true) Name
O EDDC APT - 0 ft / 0 m 51.13437˚ 13.76806˚ - 0 nm - Dresden
RIVSA FIX - 5,400 ft / 1,646 m 51.10861˚ 13.36667˚ 15 nm 15 nm 264° / 264° -
O EDDE APT - 0 ft / 0 m 50.97981˚ 10.95810˚ 91 nm 106 nm 266° / 264° Erfurt

Altitude Profile

Advertisement - Login to hide

EDDC

Details ICAO EDDC (DRS)
Name Dresden
Region Germany - Civil
Timezone Europe/Berlin (UTC+2.0)
Stats Elevation 752 ft / 229 m (AMSL)
Location 51.134366° 13.768065°
Runways 1
Magnetic Variation 3.856° E

METAR

EDDC 251320Z 11008KT 060V160 CAVOK 24/06 Q1019 NOSIG

Decode

TAF

TAF EDDC 251100Z 2512/2612 08015G25KT CAVOK BECMG 2514/2517 07008KT TEMPO 2522/2606 15004KT

Decode

Departure Runways

ID Width Length Bearing (true) Bearing (mag) Surface Threshold Offset Overrun Length
04 197 ft / 60 m 9,348 ft / 2,849 m 40.74° 36.88° Concrete 0 ft / 0 m 0 ft / 0 m
22 197 ft / 60 m 9,348 ft / 2,849 m 220.76° 216.90° Concrete 984 ft / 300 m 0 ft / 0 m

EDDE

Details ICAO EDDE (ERF)
Name Erfurt
Region Germany - Civil
Timezone Europe/Berlin (UTC+2.0)
Stats Elevation 1,035 ft / 315 m (AMSL)
Location 50.979808° 10.958105°
Runways 1
Magnetic Variation 3.083° E

METAR

EDDE 251320Z VRB02KT 9999 VCSH FEW030 FEW040CB SCT080 19/17 Q1020 RERA NOSIG

Decode

TAF

TAF TAF EDDE 251100Z 2512/2612 06008KT 9999 SCT030 PROB30 TEMPO 2512/2516 3000 TSRA BKN012 BKN020CB BECMG 2518/2520 VRB03KT TEMPO 2600/2606 3000 BR PROB30 TEMPO 2602/2605 0300 FG BKN001

Decode

Destination Runways

ID Width Length Bearing (true) Bearing (mag) Surface Threshold Offset Overrun Length
10 164 ft / 50 m 8,523 ft / 2,598 m 98.24° 95.16° Asphalt 0 ft / 0 m 0 ft / 0 m
28 164 ft / 50 m 8,523 ft / 2,598 m 278.27° 275.19° Asphalt 656 ft / 200 m 0 ft / 0 m

Approach Navaids

Runway Type Ident Frequency Range Bearing (true) Bearing (mag) Slope Elevation
10 Localiser IERE 108.30 MHz 18 nm / 33 km 97.72° 94.64° - 1,016 ft / 310 m (AMSL)
10 Glidescope IERE 108.30 MHz 10 nm / 19 km 98.25° 95.17° 3.00° 1,035 ft / 315 m (AMSL)
28 Localiser IERW 109.90 MHz 18 nm / 33 km 277.68° 274.59° - 1,025 ft / 312 m (AMSL)
28 Glidescope IERW 109.90 MHz 10 nm / 19 km 278.25° 275.17° 3.00° 1,035 ft / 315 m (AMSL)

Popular Alternatives